Ketchikan, AK

7:25 AM AKST on November 15, 2018 (GMT -0900)
Ketchikan International

Weather History for PAKT - August, 2018

Change the Weather History Date:

Wednesday, August 1, 2018

  Actual Average Record
Temperature  
Mean Temperature 60 °F -  
Max Temperature 68 °F 65 °F 84 °F (1961)
Min Temperature 55 °F 51 °F 41 °F (1957)
Degree Days  
Heating Degree Days 4    
Growing Degree Days 10 (Base 50)    
Moisture  
Dew Point 54 °F    
Average Humidity 81    
Maximum Humidity 93    
Minimum Humidity 66    
Precipitation  
Precipitation 0.00 in - - ()
Sea Level Pressure  
Sea Level Pressure 29.97 in    
Wind  
Wind Speed 8 mph (SE)    
Max Wind Speed 16 mph    
Max Gust Speed -    
Visibility 10 miles    
Events      
Averages and records for this station are not official NWS values.
T = Trace of Precipitation, MM = Missing Value Source: NWS Daily Summary

Daily Weather History Graph

Daily Weather History Graph

Search for Another Location

Airport or City:

Astronomy

Aug. 01, 2018 Rise Set
Actual Time 4:54 AM AKDT 8:50 PM AKDT
Civil Twilight 4:07 AM AKDT 9:37 PM AKDT
Nautical Twilight 2:58 AM AKDT 10:44 PM AKDT
Astronomical Twilight 1:25 AM AKDT 12:20 AM AKDT
Moon 10:51 PM AKDT (8/1) 10:09 AM AKDT (8/1)
Length of Visible Light 17h 30m
Length of Day
15h 56m
Waning Gibbous, 78% of the Moon is Illuminated
Aug 1
Waning Gibbous
Aug 4
Last Quarter
Aug 11
New
Aug 17
First Quarter
Aug 26
Full

Hourly Weather History & Observations

Time (AKDT) Temp. Dew Point Humidity Pressure Visibility Wind Dir Wind Speed Gust Speed Precip Events Conditions
12:08 AM 57.9 °F 55.0 °F 90% 29.96 in 10.0 mi SSE 6.9 mph - N/A   Scattered Clouds
12:16 AM 57.9 °F 55.9 °F 93% 29.96 in 9.0 mi SSE 5.8 mph - N/A   Mostly Cloudy
12:53 AM 57.9 °F 55.9 °F 93% 29.96 in 9.0 mi SSE 5.8 mph - N/A   Overcast
1:53 AM 57.9 °F 55.0 °F 90% 29.96 in 10.0 mi SSE 4.6 mph - N/A   Overcast
2:53 AM 57.0 °F 54.0 °F 89% 29.95 in 10.0 mi SSE 4.6 mph - N/A   Overcast
3:53 AM 57.0 °F 54.0 °F 89% 29.96 in 10.0 mi South 4.6 mph - N/A   Overcast
4:53 AM 57.0 °F 54.0 °F 89% 29.96 in 10.0 mi SSE 5.8 mph - N/A   Overcast
5:53 AM 55.9 °F 54.0 °F 93% 29.96 in 10.0 mi SSE 5.8 mph - N/A   Overcast
6:53 AM 57.0 °F 53.1 °F 87% 29.97 in 10.0 mi SSE 6.9 mph - N/A   Overcast
7:25 AM 57.0 °F 53.1 °F 87% 29.97 in 10.0 mi SE 9.2 mph - N/A   Overcast
8:53 AM 59.0 °F 53.1 °F 81% 29.98 in 10.0 mi SE 10.4 mph - N/A   Overcast
9:53 AM 60.1 °F 54.0 °F 80% 29.98 in 10.0 mi ESE 8.1 mph - N/A   Overcast
10:53 AM 61.0 °F 54.0 °F 78% 29.98 in 10.0 mi ESE 9.2 mph - N/A   Overcast
11:53 AM 62.6 °F 53.6 °F 72% 29.98 in 10.0 mi SE 9.2 mph - N/A   Overcast
12:53 PM 64.4 °F 53.6 °F 68% 29.98 in 10.0 mi ESE 12.7 mph - N/A   Mostly Cloudy
1:19 PM 64.9 °F 55.0 °F 70% 29.97 in 10.0 mi ESE 12.7 mph - N/A   Partly Cloudy
1:53 PM 66.0 °F 55.0 °F 68% 29.97 in 10.0 mi ESE 13.8 mph - N/A   Partly Cloudy
2:53 PM 66.9 °F 55.0 °F 66% 29.97 in 10.0 mi SE 12.7 mph - N/A   Clear
3:53 PM 64.9 °F 54.0 °F 68% 29.97 in 10.0 mi SE 12.7 mph - N/A   Partly Cloudy
4:53 PM 64.4 °F 53.6 °F 68% 29.96 in 10.0 mi SE 11.5 mph - N/A   Partly Cloudy
5:53 PM 64.4 °F 53.6 °F 68% 29.96 in 10.0 mi ESE 16.1 mph - N/A   Scattered Clouds
6:53 PM 60.8 °F 53.6 °F 77% 29.97 in 10.0 mi SE 11.5 mph - N/A   Overcast
7:53 PM 60.8 °F 53.6 °F 77% 29.97 in 10.0 mi SSE 10.4 mph - N/A   Overcast
8:53 PM 57.0 °F 53.1 °F 87% 29.98 in 10.0 mi SSE 9.2 mph - N/A   Overcast
9:15 PM 57.0 °F 53.1 °F 87% 29.97 in 10.0 mi SSE 6.9 mph - N/A   Mostly Cloudy
9:53 PM 57.0 °F 53.1 °F 87% 29.99 in 10.0 mi SSE 10.4 mph - N/A   Overcast
10:53 PM 57.0 °F 52.0 °F 83% 29.99 in 10.0 mi SSE 5.8 mph - N/A   Overcast
11:53 PM 57.0 °F 53.1 °F 87% 29.99 in 10.0 mi SSE 6.9 mph - N/A   Overcast